Flag for Germany Weather past 2 weeks in Ansbach, Bavaria, Germany

Now
40 °F

Overcast.


Feels Like: 30 °F
Forecast: 38 / 45 °F
Wind: 23 mph from Southwest

Location: Ansbach / Katterbach

Current Time: Dec 22, 2014 at 8:26:46 AM

Latest Report: Dec 22, 2014 at 7:58 AM


Visibility: N/A

Pressure: 30.33 "Hg

Humidity: 86%

Dew point: 36 °F

Location of AnsbachLocation

Historic Weather in Ansbach — Graph

°F

Ansbach temperature yesterday

Maximum temperature yesterday: 40 °F (at 11:58 AM)
Minimum temperature yesterday: 35 °F (at 2:58 AM)
Average temperature yesterday: 38 °F

Past Weeks' High & Low Weather Summary

 TemperatureHumidityPressure
High52 °F (Dec 18, 8:58 PM)100% (Dec 7, 6:58 AM)30.55 "Hg (Dec 7, 6:58 AM)
Low24 °F (Dec 9, 7:58 AM)62% (Dec 13, 1:58 PM)29.77 "Hg (Dec 12, 5:58 PM)
Average39 °F97%30.12 "Hg
* Reported Dec 7 6:58 AM — Dec 22 6:58 AM, Ansbach, Weather by CustomWeather, © 2014

Note: Actual official high and low records may vary slightly from our data, if they occured in-between our weather recording intervals... More about our weather records

Advertising

Ansbach weather history for previous 24 hours

 ConditionsComfort  
Time TempWeatherWind HumidityBarometerVisibility
6:58 AM
Dec 22
40 °FOvercast.21 mph85%30.32 "HgN/A
5:58 AM41 °FOvercast.18 mph81%30.33 "HgN/A
4:58 AM40 °FOvercast.20 mph83%30.34 "HgN/A
3:58 AM40 °FOvercast.21 mph85%30.38 "HgN/A
2:58 AM40 °FOvercast.16 mph85%30.40 "HgN/A
1:58 AM41 °FOvercast.16 mph81%30.40 "HgN/A
12:58 AM40 °FOvercast.16 mph85%30.41 "HgN/A
12:01 AM39 °FLight rain. Mostly cloudy.16 mph93%30.34 "HgN/A
11:58 PM
Dec 21
39 °FMostly cloudy.16 mph93%30.43 "HgN/A
10:58 PM39 °FOvercast.20 mph88%30.43 "HgN/A
9:58 PM38 °FPartly cloudy.17 mph95%30.45 "HgN/A
8:58 PM39 °FOvercast.16 mph93%30.47 "HgN/A
7:58 PM39 °FOvercast.16 mph88%30.49 "HgN/A
6:58 PM39 °FMostly cloudy.17 mph87%30.47 "HgN/A
5:58 PM39 °FOvercast.16 mph81%30.49 "HgN/A
4:58 PM40 °FDrizzle. Overcast.18 mph83%30.50 "HgN/A
3:58 PM39 °FOvercast.15 mph93%30.51 "HgN/A
2:58 PM39 °FDrizzle. Mostly cloudy.14 mph93%30.51 "HgN/A
1:58 PM39 °FMostly cloudy.14 mph93%30.51 "HgN/A
12:58 PM40 °FMostly cloudy.16 mph90%30.53 "HgN/A
11:58 AM40 °FMostly cloudy.14 mph89%30.54 "HgN/A
10:58 AM39 °FOvercast.13 mph93%30.55 "HgN/A
9:58 AM38 °FOvercast.12 mph99%30.55 "HgN/A
8:58 AM37 °FOvercast.14 mph100%30.53 "HgN/A
8:00 AM36 °FPartly cloudy.13 mph100%30.43 "HgN/A
Weather by CustomWeather, © 2014

See weather overviewHow to use our weather pages